TimeEDT,TemperatureF,Dew PointF,Humidity,Sea Level PressureIn,VisibilityMPH,Wind Direction,Wind SpeedMPH,Gust SpeedMPH,PrecipitationIn,Events,Conditions,WindDirDegrees,DateUTC
12:15 AM,31.6,29.5,92,29.68,5.0,ENE,6.9,-,N/A,Snow,Light Snow,60,2013-04-13 04:15:00
12:35 AM,31.5,29.5,92,29.68,3.0,ENE,6.9,-,N/A,Snow,Light Snow,60,2013-04-13 04:35:00
12:56 AM,31.5,29.5,92,29.68,5.0,NE,5.8,-,N/A,Snow,Light Snow,50,2013-04-13 04:56:00
1:15 AM,31.5,29.3,92,29.68,10.0,ENE,6.9,-,N/A,,Overcast,60,2013-04-13 05:15:00
1:35 AM,31.5,29.3,92,29.68,10.0,ENE,5.8,-,N/A,,Overcast,60,2013-04-13 05:35:00
1:56 AM,31.5,29.3,92,29.68,10.0,NE,5.8,-,N/A,,Overcast,50,2013-04-13 05:56:00
2:15 AM,31.5,29.3,92,29.68,10.0,NE,5.8,-,N/A,,Overcast,50,2013-04-13 06:15:00
2:35 AM,31.5,29.3,92,29.68,10.0,NE,3.5,-,N/A,,Overcast,50,2013-04-13 06:35:00
2:56 AM,31.5,29.3,92,29.68,10.0,NNE,4.6,-,N/A,,Overcast,20,2013-04-13 06:56:00
3:15 AM,31.5,29.3,92,29.68,10.0,Calm,Calm,-,N/A,,Overcast,0,2013-04-13 07:15:00
3:36 AM,31.3,29.3,92,29.68,10.0,Calm,Calm,-,N/A,,Overcast,0,2013-04-13 07:36:00
3:56 AM,31.5,29.7,93,29.68,10.0,Calm,Calm,-,N/A,,Overcast,0,2013-04-13 07:56:00
4:15 AM,31.5,29.7,93,29.68,10.0,Calm,Calm,-,N/A,,Overcast,0,2013-04-13 08:15:00
4:36 AM,31.1,29.3,93,29.68,10.0,Calm,Calm,-,N/A,,Overcast,0,2013-04-13 08:36:00
4:56 AM,31.1,29.3,93,29.68,7.0,Calm,Calm,-,N/A,,Overcast,0,2013-04-13 08:56:00
5:15 AM,31.1,29.3,93,29.68,7.0,NNW,4.6,-,N/A,,Overcast,330,2013-04-13 09:15:00
5:36 AM,30.9,29.3,94,29.68,7.0,Calm,Calm,-,N/A,,Overcast,0,2013-04-13 09:36:00
5:56 AM,30.9,29.3,94,29.68,4.0,Calm,Calm,-,N/A,,Overcast,0,2013-04-13 09:56:00
6:15 AM,30.9,29.3,94,29.68,10.0,Calm,Calm,-,N/A,,Overcast,0,2013-04-13 10:15:00
6:36 AM,30.9,29.3,94,29.68,10.0,Calm,Calm,-,N/A,Snow,Light Snow,0,2013-04-13 10:36:00
6:56 AM,30.9,29.3,94,29.67,10.0,Calm,Calm,-,N/A,,Overcast,0,2013-04-13 10:56:00
7:15 AM,30.2,28.8,94,29.68,10.0,Calm,Calm,-,N/A,,Overcast,0,2013-04-13 11:15:00
7:36 AM,30.6,28.9,94,29.68,10.0,Calm,Calm,-,N/A,Snow,Light Snow,0,2013-04-13 11:36:00
7:56 AM,30.9,29.3,94,29.68,3.0,Calm,Calm,-,N/A,Snow,Light Snow,0,2013-04-13 11:56:00
8:15 AM,31.1,29.7,94,29.69,7.0,Calm,Calm,-,N/A,Snow,Light Snow,0,2013-04-13 12:15:00
8:35 AM,31.5,29.7,93,29.68,3.0,Calm,Calm,-,N/A,Snow,Light Snow,0,2013-04-13 12:35:00
8:55 AM,32.0,30.2,93,29.68,3.0,SSW,6.9,-,N/A,Snow,Light Snow,200,2013-04-13 12:55:00
9:15 AM,32.0,30.2,93,29.68,4.0,SSW,3.5,-,N/A,Snow,Light Snow,210,2013-04-13 13:15:00
9:36 AM,32.0,30.7,95,29.68,2.0,SW,4.6,-,N/A,Snow,Light Snow,220,2013-04-13 13:36:00
9:55 AM,32.0,30.6,94,29.68,2.0,WSW,5.8,-,N/A,Snow,Light Snow,240,2013-04-13 13:55:00
10:15 AM,32.0,29.3,90,29.67,3.0,WSW,4.6,-,N/A,Snow,Light Snow,240,2013-04-13 14:15:00
10:36 AM,32.4,30.2,92,29.67,5.0,WSW,4.6,-,N/A,Snow,Light Snow,240,2013-04-13 14:36:00
10:55 AM,32.9,30.0,89,29.67,5.0,West,8.1,-,N/A,Snow,Light Snow,260,2013-04-13 14:55:00
11:15 AM,33.1,29.8,88,29.68,4.0,West,6.9,-,N/A,,Overcast,260,2013-04-13 15:15:00
11:36 AM,33.4,30.0,87,29.68,4.0,West,8.1,-,N/A,Snow,Light Snow,270,2013-04-13 15:36:00
11:55 AM,34.2,29.8,84,29.68,4.0,West,8.1,-,N/A,Snow,Light Snow,270,2013-04-13 15:55:00
12:15 PM,34.7,29.3,81,29.68,5.0,West,6.9,-,N/A,Snow,Light Snow,280,2013-04-13 16:15:00
12:36 PM,34.9,28.9,79,29.68,7.0,West,8.1,-,N/A,Snow,Light Snow,280,2013-04-13 16:36:00
12:55 PM,34.7,28.8,79,29.68,5.0,West,8.1,-,N/A,Snow,Light Snow,270,2013-04-13 16:55:00
1:15 PM,34.3,28.8,80,29.68,7.0,West,6.9,-,N/A,Snow,Light Snow,270,2013-04-13 17:15:00
1:36 PM,34.3,28.0,78,29.68,7.0,West,8.1,-,N/A,Snow,Light Snow,270,2013-04-13 17:36:00
1:55 PM,33.8,29.3,84,29.69,10.0,WSW,5.8,-,N/A,,Overcast,240,2013-04-13 17:55:00
2:15 PM,33.8,29.7,85,29.69,10.0,WSW,10.4,-,N/A,,Overcast,240,2013-04-13 18:15:00
2:36 PM,34.2,29.3,82,29.70,10.0,WSW,9.2,-,N/A,,Scattered Clouds,240,2013-04-13 18:36:00
2:55 PM,34.3,29.3,82,29.70,10.0,WSW,11.5,-,N/A,,Clear,240,2013-04-13 18:55:00
3:15 PM,34.7,29.8,82,29.70,10.0,WSW,15.0,19.6,N/A,,Scattered Clouds,240,2013-04-13 19:15:00
3:36 PM,35.1,28.4,77,29.71,10.0,WSW,12.7,18.4,N/A,,Scattered Clouds,240,2013-04-13 19:36:00
3:55 PM,34.7,28.6,78,29.71,10.0,WSW,15.0,20.7,N/A,,Scattered Clouds,240,2013-04-13 19:55:00
4:15 PM,34.9,29.5,81,29.72,10.0,WSW,13.8,21.9,N/A,,Mostly Cloudy,240,2013-04-13 20:15:00
4:36 PM,35.1,29.3,80,29.73,10.0,WSW,12.7,21.9,N/A,,Overcast,240,2013-04-13 20:36:00
4:55 PM,34.7,29.1,80,29.73,10.0,WSW,13.8,21.9,N/A,,Mostly Cloudy,240,2013-04-13 20:55:00
5:16 PM,34.0,29.3,83,29.74,4.0,WSW,15.0,27.6,N/A,Snow,Light Snow,240,2013-04-13 21:16:00
5:36 PM,34.0,30.0,85,29.74,10.0,WSW,15.0,21.9,N/A,Snow,Light Snow,240,2013-04-13 21:36:00
5:55 PM,33.8,30.4,87,29.75,1.8,WSW,12.7,24.2,N/A,Snow,Light Snow,250,2013-04-13 21:55:00
6:16 PM,33.1,31.1,92,29.76,1.0,WSW,15.0,24.2,N/A,Snow,Light Snow,240,2013-04-13 22:16:00
6:36 PM,33.1,31.6,94,29.77,1.0,WSW,13.8,23.0,N/A,Snow,Light Snow,250,2013-04-13 22:36:00
6:55 PM,33.1,31.6,94,29.77,3.0,WSW,10.4,24.2,N/A,Snow,Light Snow,240,2013-04-13 22:55:00
7:16 PM,33.1,31.8,95,29.78,1.8,WSW,9.2,19.6,N/A,Snow,Light Snow,250,2013-04-13 23:16:00
7:35 PM,33.3,32.0,95,29.78,1.8,West,12.7,18.4,N/A,Snow,Light Snow,260,2013-04-13 23:35:00
7:55 PM,33.3,32.0,95,29.79,1.0,West,10.4,17.3,N/A,Snow,Light Snow,280,2013-04-13 23:55:00
8:16 PM,32.5,30.7,93,29.80,10.0,WNW,9.2,-,N/A,,Overcast,290,2013-04-14 00:16:00
8:35 PM,32.4,30.6,93,29.80,3.0,WNW,9.2,-,N/A,,Overcast,290,2013-04-14 00:35:00
8:55 PM,32.4,30.6,93,29.81,10.0,WNW,8.1,-,N/A,,Overcast,300,2013-04-14 00:55:00
9:16 PM,32.0,30.7,95,29.82,10.0,WNW,8.1,-,N/A,,Mostly Cloudy,290,2013-04-14 01:16:00
9:35 PM,32.0,30.0,92,29.83,10.0,West,9.2,-,N/A,,Scattered Clouds,280,2013-04-14 01:35:00
9:55 PM,32.0,29.8,92,29.84,7.0,West,11.5,-,N/A,,Mostly Cloudy,280,2013-04-14 01:55:00
10:16 PM,31.6,29.3,91,29.85,10.0,West,6.9,-,N/A,,Scattered Clouds,280,2013-04-14 02:16:00
10:35 PM,32.0,29.8,92,29.85,10.0,West,5.8,-,N/A,,Mostly Cloudy,280,2013-04-14 02:35:00
10:55 PM,32.0,28.8,88,29.86,10.0,West,10.4,-,N/A,,Overcast,270,2013-04-14 02:55:00
11:16 PM,32.0,28.8,88,29.86,10.0,West,10.4,-,N/A,,Overcast,280,2013-04-14 03:16:00
11:35 PM,32.0,28.8,88,29.86,10.0,WNW,9.2,-,N/A,,Overcast,290,2013-04-14 03:35:00
11:55 PM,32.0,28.4,87,29.87,10.0,WNW,9.2,-,N/A,,Overcast,290,2013-04-14 03:55:00